Location: Chassagnes
(44.4047°N, 4.1657°E)
Time: 12:48:22
(UTC+00:00)

Cosmos 2263 Rocket - Pass Details

Date: 27 October 2020
Orbit: 822 x 850 km, 71.0° (Epoch: 23 November)

Event Time Altitude Azimuth Distance (km) Brightness Sun altitude
Rises 17:27:43 0° 346° (NNW) 3,419 5.4 -9.2°
Reaches altitude 10° 17:33:11 10° 29° (NNE) 2,483 4.3 -10.2°
Maximum altitude 17:33:51 10° 36° (NE) 2,470 4.2 -10.3°
Drops below altitude 10° 17:34:31 10° 42° (NE) 2,483 4.2 -10.4°
Enters shadow 17:35:30 - 52° (NE) 2,550 4.2 -10.6°
